Location: Excel
(51.3833°N, 110.5667°W)
Time: 21:22:47
(UTC+00:00)

Envisat - Pass Details

Date: 06 December 2021
Orbit: 764 x 766 km, 98.2° (Epoch: 26 January)

Event Time Altitude Azimuth Distance (km) Brightness Sun altitude
Rises 10:57:35 0° 28° (NNE) 3,246 6.7 -38.4°
Reaches altitude 10° 11:01:01 10° 52° (NE) 2,313 6.1 -37.9°
Maximum altitude 11:03:47 15° 86° (E) 2,004 5.8 -37.5°
Drops below altitude 10° 11:06:33 10° 119° (ESE) 2,303 6.0 -37.1°
Sets 11:09:56 0° 143° (SE) 3,222 6.5 -36.5°
